Orbital Elements at Epoch 2459000.5 (2020-May-31.0) TDB
Reference: JPL 15 (heliocentric ecliptic J2000)
Element | Value | Uncertainty (1-sigma) | Units |
e | .1350634574219603 | 6.2545e-08 | |
a | 2.558048180357554 | 1.572e-08 | au |
q | 2.212549348866508 | 1.5425e-07 | au |
i | 13.1673246608859 | 6.7778e-06 | deg |
node | 190.7728220734131 | 2.4721e-05 | deg |
peri | 178.735633258176 | 3.3584e-05 | deg |
M | 10.46778583058197 | 2.6353e-05 | deg |
tp | 2458957.047593406559 (2020-Apr-17.54759341) | 0.00010918 | TDB |
period | 1494.381584301978 4.09 | 1.3776e-05 3.772e-08 | d yr |
n | .2409023262744202 | 2.2207e-09 | deg/d |
Q | 2.903547011848599 | 1.7844e-08 | au |
|
| | Orbit Determination Parameters
Additional Information
|